Clarion, IA

8:21 PM CST on November 13, 2019 (GMT -0600)
Clarion Municipal

Weather History for KCAV - September, 2019

Change the Weather History Date:

Monday, September 30, 2019

  Actual Average Record
Temperature  
Mean Temperature 78 °F -  
Max Temperature 91 °F 72 °F 91 °F (2019)
Min Temperature 66 °F 45 °F 24 °F (1984)
Cooling Degree Days 14    
Growing Degree Days 28 (Base 50)    
Moisture  
Dew Point 70 °F    
Average Humidity 79    
Maximum Humidity 100    
Minimum Humidity 49    
Precipitation  
Precipitation 0.00 in - - ()
Sea Level Pressure  
Sea Level Pressure 29.82 in    
Wind  
Wind Speed 15 mph (South)    
Max Wind Speed 29 mph    
Max Gust Speed 36 mph    
Visibility 10 miles    
Events      
Averages and records for this station are not official NWS values.
T = Trace of Precipitation, MM = Missing Value Source: NWS Daily Summary

Daily Weather History Graph

Daily Weather History Graph

Search for Another Location

Airport or City:

Astronomy

Sep. 30, 2019 Rise Set
Actual Time 7:10 AM CDT 6:58 PM CDT
Civil Twilight 6:42 AM CDT 7:26 PM CDT
Nautical Twilight 6:09 AM CDT 7:59 PM CDT
Astronomical Twilight 5:36 AM CDT 8:32 PM CDT
Moon 9:17 AM CDT (9/30) 8:31 PM CDT (9/30)
Length of Visible Light 12h 43m
Length of Day
11h 47m
Waxing Crescent, 6% of the Moon is Illuminated
Sep 30
Waxing Crescent
Oct 5
First Quarter
Oct 13
Full
Oct 21
Last Quarter
Oct 27
New

Hourly Weather History & Observations

Time (CDT) Temp. Heat Index Dew Point Humidity Pressure Visibility Wind Dir Wind Speed Gust Speed Precip Events Conditions
12:15 AM 66.2 °F - 64.4 °F 94% 29.94 in 8.0 mi SSE 10.4 mph 18.4 mph N/A   Overcast
12:35 AM 66.2 °F - 66.2 °F 100% 29.93 in 10.0 mi SE 12.7 mph - N/A   Overcast
12:55 AM 66.2 °F - 66.2 °F 100% 29.92 in 10.0 mi SE 10.4 mph - N/A   Overcast
1:15 AM 68.0 °F - 66.2 °F 94% 29.91 in 10.0 mi South 11.5 mph 17.3 mph N/A   Overcast
1:35 AM 68.0 °F - 68.0 °F 100% 29.91 in 10.0 mi SSE 13.8 mph 20.7 mph N/A   Overcast
1:55 AM 68.0 °F - 68.0 °F 100% 29.91 in 10.0 mi SSE 11.5 mph 21.9 mph N/A   Overcast
2:15 AM 69.8 °F - 68.0 °F 94% 29.90 in 10.0 mi South 16.1 mph 23.0 mph N/A   Overcast
2:35 AM 69.8 °F - 69.8 °F 100% 29.89 in 10.0 mi South 16.1 mph - N/A   Overcast
2:55 AM 69.8 °F - 69.8 °F 100% 29.89 in 10.0 mi South 15.0 mph - N/A   Overcast
3:15 AM 69.8 °F - 69.8 °F 100% 29.87 in 10.0 mi South 17.3 mph 24.2 mph N/A   Overcast
3:35 AM 69.8 °F - 69.8 °F 100% 29.87 in 10.0 mi South 13.8 mph 21.9 mph N/A   Overcast
3:55 AM 69.8 °F - 69.8 °F 100% 29.87 in 10.0 mi South 18.4 mph 27.6 mph N/A   Overcast
4:15 AM 69.8 °F - 69.8 °F 100% 29.86 in 10.0 mi SSE 17.3 mph 24.2 mph N/A   Overcast
4:35 AM 69.8 °F - 69.8 °F 100% 29.86 in 10.0 mi South 13.8 mph 23.0 mph N/A   Mostly Cloudy
4:55 AM 69.8 °F - 69.8 °F 100% 29.86 in 10.0 mi SSE 13.8 mph 19.6 mph N/A   Partly Cloudy
5:15 AM 69.8 °F - 69.8 °F 100% 29.86 in 10.0 mi SSE 13.8 mph 20.7 mph N/A   Clear
5:35 AM 69.8 °F - 69.8 °F 100% 29.85 in 10.0 mi SSE 10.4 mph 17.3 mph N/A   Clear
5:55 AM 69.8 °F - 68.0 °F 94% 29.85 in 10.0 mi South 11.5 mph - N/A   Partly Cloudy
6:15 AM 69.8 °F - 69.8 °F 100% 29.84 in 10.0 mi South 10.4 mph - N/A   Clear
6:35 AM 69.8 °F - 69.8 °F 100% 29.84 in 10.0 mi South 12.7 mph - N/A   Clear
7:35 AM 69.8 °F - 69.8 °F 100% 29.83 in 9.0 mi South 10.4 mph - N/A   Clear
7:55 AM 71.6 °F - 71.6 °F 100% 29.83 in 10.0 mi South 13.8 mph - N/A   Clear
8:15 AM 73.4 °F - 71.6 °F 94% 29.82 in 10.0 mi South 15.0 mph 21.9 mph N/A   Clear
8:35 AM 73.4 °F - 71.6 °F 94% 29.82 in 10.0 mi South 17.3 mph - N/A   Clear
8:55 AM 75.2 °F - 71.6 °F 89% 29.82 in 10.0 mi South 19.6 mph 26.5 mph N/A   Clear
9:15 AM 75.2 °F - 71.6 °F 89% 29.81 in 10.0 mi South 19.6 mph 27.6 mph N/A   Clear
9:35 AM 77.0 °F - 71.6 °F 83% 29.82 in 10.0 mi SSW 21.9 mph 31.1 mph N/A   Clear
9:55 AM 78.8 °F - 71.6 °F 78% 29.81 in 10.0 mi SSW 18.4 mph 31.1 mph N/A   Clear
10:15 AM 78.8 °F - 71.6 °F 78% 29.81 in 10.0 mi SSW 20.7 mph 33.4 mph N/A   Clear
10:35 AM 80.6 °F 84.6 °F 71.6 °F 74% 29.81 in 10.0 mi SSW 24.2 mph 33.4 mph N/A   Clear
10:55 AM 82.4 °F 86.3 °F 69.8 °F 66% 29.80 in 10.0 mi SSW 23.0 mph 32.2 mph N/A   Clear
11:15 AM 82.4 °F 86.3 °F 69.8 °F 66% 29.79 in 10.0 mi SSW 26.5 mph 35.7 mph N/A   Clear
11:35 AM 84.2 °F 88.4 °F 69.8 °F 62% 29.80 in 10.0 mi SSW 23.0 mph 35.7 mph N/A   Clear
11:55 AM 86.0 °F 90.4 °F 69.8 °F 58% 29.80 in 10.0 mi SSW 21.9 mph 28.8 mph N/A   Partly Cloudy
12:15 PM 86.0 °F 90.4 °F 69.8 °F 58% 29.80 in 10.0 mi SSW 23.0 mph 32.2 mph N/A   Partly Cloudy
12:35 PM 87.8 °F 92.6 °F 69.8 °F 55% 29.79 in 10.0 mi SSW 21.9 mph 28.8 mph N/A   Partly Cloudy
12:55 PM 87.8 °F 92.6 °F 69.8 °F 55% 29.80 in 10.0 mi SSW 25.3 mph 33.4 mph N/A   Scattered Clouds
1:15 PM 87.8 °F 92.6 °F 69.8 °F 55% 29.79 in 10.0 mi SW 20.7 mph 27.6 mph N/A   Scattered Clouds
1:35 PM 89.6 °F 94.7 °F 69.8 °F 52% 29.78 in 10.0 mi SSW 20.7 mph 27.6 mph N/A   Clear
1:55 PM 89.6 °F 94.7 °F 69.8 °F 52% 29.78 in 10.0 mi SW 21.9 mph 31.1 mph N/A   Clear
2:15 PM 89.6 °F 94.7 °F 69.8 °F 52% 29.77 in 10.0 mi SSW 19.6 mph 31.1 mph N/A   Partly Cloudy
2:35 PM 91.4 °F 96.8 °F 69.8 °F 49% 29.76 in 10.0 mi SSW 25.3 mph 31.1 mph N/A   Partly Cloudy
2:55 PM 91.4 °F 96.8 °F 69.8 °F 49% 29.75 in 10.0 mi SSW 28.8 mph - N/A   Clear
3:15 PM 91.4 °F 96.8 °F 69.8 °F 49% 29.75 in 10.0 mi SSW 24.2 mph 33.4 mph N/A   Clear
3:35 PM 91.4 °F 96.8 °F 69.8 °F 49% 29.75 in - SSW 23.0 mph 32.2 mph N/A   Clear
3:55 PM 91.4 °F 96.8 °F 69.8 °F 49% 29.75 in 10.0 mi SSW 24.2 mph 31.1 mph N/A   Clear
4:35 PM 89.6 °F 94.7 °F 69.8 °F 52% 29.75 in 10.0 mi SSW 21.9 mph 33.4 mph N/A   Partly Cloudy
4:55 PM 89.6 °F 94.7 °F 69.8 °F 52% 29.76 in 10.0 mi SSW 20.7 mph 29.9 mph N/A   Partly Cloudy
5:15 PM 89.6 °F 94.7 °F 69.8 °F 52% 29.76 in 10.0 mi SSW 20.7 mph 28.8 mph N/A   Clear
5:35 PM 87.8 °F 92.6 °F 69.8 °F 55% 29.77 in 10.0 mi SSW 17.3 mph 27.6 mph N/A   Partly Cloudy
5:55 PM 87.8 °F 93.8 °F 71.6 °F 58% 29.78 in 10.0 mi SSW 18.4 mph 24.2 mph N/A   Mostly Cloudy
6:15 PM 86.0 °F 91.8 °F 71.6 °F 62% 29.78 in 10.0 mi SSW 15.0 mph 24.2 mph N/A   Scattered Clouds
6:35 PM 84.2 °F 89.6 °F 71.6 °F 66% 29.79 in 10.0 mi SSW 13.8 mph 20.7 mph N/A   Mostly Cloudy
6:55 PM 84.2 °F 89.6 °F 71.6 °F 66% 29.79 in 10.0 mi SSW 10.4 mph - N/A   Overcast
7:15 PM 82.4 °F 87.2 °F 71.6 °F 70% 29.79 in 10.0 mi SSW 8.1 mph - N/A   Scattered Clouds
7:55 PM 80.6 °F 84.6 °F 71.6 °F 74% 29.80 in 10.0 mi South 8.1 mph - N/A   Scattered Clouds
8:15 PM 78.8 °F - 71.6 °F 78% 29.81 in 10.0 mi South 6.9 mph - N/A   Partly Cloudy
8:35 PM 78.8 °F - 71.6 °F 78% 29.81 in 10.0 mi South 9.2 mph - N/A   Scattered Clouds
8:55 PM 77.0 °F - 73.4 °F 89% 29.82 in 10.0 mi South 10.4 mph - N/A   Mostly Cloudy
9:15 PM 77.0 °F - 73.4 °F 89% 29.82 in 10.0 mi South 10.4 mph - N/A   Partly Cloudy
9:35 PM 77.0 °F - 73.4 °F 89% 29.82 in 10.0 mi South 9.2 mph - N/A   Clear
9:55 PM 77.0 °F - 73.4 °F 89% 29.82 in 10.0 mi South 9.2 mph - N/A   Clear
10:15 PM 78.8 °F - 73.4 °F 83% 29.83 in 10.0 mi SSW 11.5 mph - N/A   Clear
10:35 PM 77.0 °F - 73.4 °F 89% 29.84 in 10.0 mi SSW 9.2 mph - N/A   Partly Cloudy
10:55 PM 77.0 °F - 73.4 °F 89% 29.84 in 10.0 mi South 9.2 mph - N/A   Mostly Cloudy
11:15 PM 77.0 °F - 73.4 °F 89% 29.85 in 10.0 mi SSW 9.2 mph - N/A   Overcast
11:35 PM 77.0 °F - 73.4 °F 89% 29.85 in 10.0 mi SSW 6.9 mph - N/A   Overcast
11:55 PM 75.2 °F - 71.6 °F 89% 29.85 in 10.0 mi SSW 5.8 mph - N/A   Overcast